Regional Weather Roundup
Issued by NWS

Home | Current Version | Previous Version | Graphics & Text | Print | Product List | Glossary On
Versions: 1 2 3 4 5 6 7 8 9 10 11 12 13 14 15 16 17 18 19 20 21 22 23 24 25 26 27 28 29 30 31 32 33 34 35 36 37 38 39 40 41 42 43 44 45 46 47 48 49 50
000
ASUS43 KLMK 251410
RWRKY
KENTUCKY REGIONAL WEATHER ROUNDUP
NATIONAL WEATHER SERVICE LOUISVILLE KY
900 AM EST THU DEC 25 2014

NOTE "FAIR" INDICATES FEW OR NO CLOUDS BELOW 12,000 FEET
WITH NO SIGNIFICANT WEATHER AND/OR OBSTRUCTIONS TO VISIBILITY.

KYZ001>023-026-027-061>063-070>075-251500-
WESTERN AND SOUTH CENTRAL KENTUCKY

CITY           SKY/WX    TMP DP  RH WIND       PRES   REMARKS
PADUCAH        CLEAR     37  31  78 S3        30.10R
HENDERSON      CLOUDY    39  30  70 SW7       30.09R WCI  34
OWENSBORO      MOCLDY    38  35  89 SW8       30.11R WCI  32
HOPKINSVILLE   CLOUDY    39  35  85 S7        30.13R WCI  34
BOWLING GREEN  CLOUDY    40  34  79 SW8       30.14R WCI  34
GLASGOW        CLOUDY    38  35  89 SW5       30.13R WCI  34
$$

KYZ024-025-028>034-038-045-046-053-251500-
NORTH CENTRAL KENTUCKY

CITY           SKY/WX    TMP DP  RH WIND       PRES   REMARKS
LOUISVILLE/SDF CLOUDY    40  33  76 SW10      30.09R WCI  33
LOUISVILLE/LOU CLOUDY    39  31  72 SW6       30.09R WCI  35
FORT KNOX      CLOUDY    38  33  80 SW10      30.08R WCI  31
$$

KYZ035>037-039>044-047>052-055>060-089>105-251500-
NORTHEAST KENTUCKY

CITY           SKY/WX    TMP DP  RH WIND       PRES   REMARKS
LEXINGTON      CLOUDY    37  31  78 W17       30.09R WCI  27
COVINGTON      CLOUDY    37  31  78 SW9       30.04R WCI  30
FRANKFORT      CLOUDY    37  31  78 W7        30.08R WCI  32
$$

KYZ054-064>069-076>088-106>120-251500-
SOUTHEAST KENTUCKY

CITY           SKY/WX    TMP DP  RH WIND       PRES   REMARKS
JACKSON        CLOUDY    38  34  85 VRB7      30.08R WCI  33
LONDON         LGT RAIN  40  32  73 W13       30.11R WCI  32
SOMERSET       CLOUDY    36  32  87 W5        30.14R WCI  32
MIDDLESBORO    LGT RAIN  40  34  80 W6        30.14R
MONTICELLO     PTSUNNY   38  36  92 W7        30.16R WCI  33
$$



USA.gov is the U.S. government's official web portal to all federal, state and local government web resources and services.